• Join FlightAware (Why Join?)
  • Login
  • US Flag 
10:10AM EST


 

Airport Tracker/Info


-or-


 

Live Flight TrackerFlight Track Log ✈ AWI4054 ✈ 30-Jun-2013 ✈ KCHS - KDCA

Flight Track Log - Related Links

Times and Time Zones

All times are in EDT time to prevent confusion due to time zone crossing. See the AWI4054 flight status page for this flight to view local times or setup timezone preferences in your user account.

Time Position Orientation Groundspeed Altitude Reporting Facility
EDT Latitude Longitude Course Direction KTS MPH feet Rate Location/Type
11:10AM 33.1511 -79.9552 16° North  Level FlightAware Approximate
11:10AM 32.9461 -79.9319 North 289 333 5,300  Level Jacksonville Center
11:11AM 33.2407 -79.9285 North  Level FlightAware Approximate
11:11AM 33.0317 -79.9392 356° North 285 328 8,000  Level Jacksonville Center
11:12AM 33.3299 -79.9017 23° Northeast  Level FlightAware Approximate
11:12AM 33.1050 -79.9492 353° North 298 343 10,000  Level Jacksonville Center
11:13AM 33.4185 -79.8730 North  Level FlightAware Approximate
11:13AM 33.2031 -79.9458 North 303 349 10,400  Level Jacksonville Center
11:14AM 33.5089 -79.8499 13° North  Level FlightAware Approximate
11:14AM 33.2914 -79.9753 344° North 341 392 12,800  Level Jacksonville Center
11:15AM 33.5988 -79.8242 13° North  Level FlightAware Approximate
11:15AM 33.3778 -79.9153 30° Northeast 333 383 13,000  Level Jacksonville Center
11:16AM 33.6888 -79.7991 North  Level FlightAware Approximate
11:16AM 33.4769 -79.8747 19° North 346 398 13,000  Level Jacksonville Center
11:17AM 33.5792 -79.8811 357° North 361 415 13,000 250 Level Jacksonville Center
11:18AM 33.6836 -79.8850 358° North 366 421 13,500 1,350 Climbing Jacksonville Center
11:19AM 33.7678 -79.8197 33° Northeast 348 400 15,700 1,884 Climbing Jacksonville Center
11:20AM 33.8450 -79.7394 41° Northeast 343 395 17,300 1,550 Climbing Jacksonville Center
11:21AM 33.9219 -79.6517 43° Northeast 361 415 18,800 1,412 Climbing Jacksonville Center
11:22AM 33.9992 -79.5661 43° Northeast 372 428 20,100 1,216 Climbing Jacksonville Center
11:24AM 34.1144 -79.4319 44° Northeast 373 429 21,900 1,040 Climbing Washington Center
11:24AM 34.1944 -79.3428 43° Northeast 384 442 22,700 814 Climbing Washington Center
11:25AM 34.2847 -79.2514 40° Northeast 390 449 23,500 732 Climbing Washington Center
11:27AM 34.3931 -79.1933 24° Northeast 408 470 24,200 694 Climbing Washington Center
11:27AM 34.4992 -79.1300 26° Northeast 415 478 24,900 756 Climbing Washington Center
11:28AM 34.6075 -79.0667 26° Northeast 421 484 25,700 756 Climbing Washington Center
11:29AM 34.7156 -79.0081 24° Northeast 421 484 26,400 807 Climbing Washington Center
11:30AM 34.8239 -78.9442 26° Northeast 426 490 27,300 744 Climbing Washington Center
11:31AM 34.9297 -78.8828 25° Northeast 426 490 27,900 590 Climbing Washington Center
11:33AM 35.0400 -78.8189 25° Northeast 426 490 28,500 555 Climbing Washington Center
11:33AM 35.1483 -78.7544 26° Northeast 426 490 29,000 254 Climbing Washington Center
11:34AM 35.2606 -78.6878 26° Northeast 432 497 29,000  Level Washington Center
11:36AM 35.3814 -78.6186 25° Northeast 460 529 29,000  Level Washington Center
11:37AM 35.5125 -78.5419 25° Northeast 477 549 29,000  Level Washington Center
11:37AM 35.6397 -78.4647 26° Northeast 483 556 29,000  Level Washington Center
11:38AM 35.7581 -78.3922 26° Northeast 483 556 29,000  Level Washington Center
11:40AM 35.8831 -78.3197 25° Northeast 483 556 29,000 -403 Level Washington Center
11:40AM 36.0078 -78.2444 26° Northeast 483 556 28,200 -1,008 Descending Washington Center
11:41AM 36.1283 -78.1689 27° Northeast 483 556 27,000 -595 Descending Washington Center
11:42AM 36.2489 -78.0981 25° Northeast 483 556 27,000  Level Washington Center
11:43AM 36.3631 -78.0269 27° Northeast 469 540 27,000  Level Washington Center
11:45AM 36.4686 -77.9631 26° Northeast 459 528 27,000 -149 Level Washington Center
11:46AM 36.5869 -77.8889 27° Northeast 459 528 26,700 -763 Descending Washington Center
11:46AM 36.7028 -77.8172 26° Northeast 459 528 25,500 -1,220 Descending Washington Center
11:47AM 36.8189 -77.7481 25° Northeast 459 528 24,300 -1,200 Descending Washington Center
11:48AM 36.9369 -77.6758 26° Northeast 459 528 23,100 -1,131 Descending Washington Center
11:50AM 37.0508 -77.6036 27° Northeast 454 522 22,000 -545 Descending Washington Center
11:50AM 37.1625 -77.5333 27° Northeast 454 522 22,000  Level Washington Center
11:51AM 37.2681 -77.4683 26° Northeast 438 504 22,000  Level Washington Center
11:52AM 37.3775 -77.4003 26° Northeast 428 493 22,000 -454 Level Washington Center
11:53AM 37.4847 -77.3350 26° Northeast 428 493 21,100 -1,250 Descending Washington Center
11:54AM 37.6000 -77.3008 13° North 428 493 19,500 -1,574 Descending Washington Center
11:56AM 37.7131 -77.2772 North 417 480 17,900 -1,525 Descending Washington Center
11:57AM 37.8239 -77.2533 10° North 407 468 16,400 -1,525 Descending Washington Center
11:57AM 37.9264 -77.2319 North 393 452 14,900 -1,525 Descending Washington Center
11:58AM 38.0308 -77.2103 North 388 447 13,400 -1,426 Descending Washington Center
12:00PM 38.1292 -77.1914 North 376 433 12,000 -1,075 Descending Washington Center
12:02PM 38.3500 -77.1500 North 271 312 9,800 -933 Descending Potomac TRACON
12:03PM 38.3906 -77.1386 12° North 298 343 9,200 -1,188 Descending Washington Center
12:04PM 38.4617 -77.1242 North 267 307 7,800 -1,538 Descending Washington Center
12:04PM 38.5347 -77.1097 North 247 284 6,200 -908 Descending Washington Center
12:05PM 38.5997 -77.0953 10° North 242 278 6,000 -98 Descending Washington Center
12:07PM 38.6667 -77.0781 11° North 242 278 6,000  Level Washington Center
12:08PM 38.7189 -77.0658 10° North 242 278 6,000  Level Washington Center
12:09PM 38.8167 -77.1000 345° North 226 260 6,000  Level Potomac TRACON
12:10PM 38.8500 -77.1500 311° West 223 257 6,000 -522 Level Potomac TRACON
12:11PM 38.9000 -77.2000 322° Northwest 215 247 5,000 -496 Descending Potomac TRACON
12:12PM 38.9500 -77.2500 322° Northwest 215 247 5,000 -350 Level Potomac TRACON
12:13PM 39.0000 -77.2833 333° Northwest 227 261 4,300 -992 Descending Potomac TRACON
12:14PM 39.0000 -77.2167 90° East 185 213 3,000 -1,279 Descending Potomac TRACON